sat.trackr.live / text

‹ back to catalog

STARLINK-11543 [DTC]

NORAD 62981 · 2025-031A

PAYLOAD ACTIVE UNKNOWN

§ Identity

Operator
Country
US
Launch date
2025-02-11
Launch site
AFETR
Launch vehicle
Mass (kg)
RCS (m²)

Purposes: comms

External: N2YO · Heavens-Above · Gunter

§ Orbital elements

Epoch: 2026-05-25T00:52:36.755328Z

Period
91.67 min
Inclination
42.9992°
Eccentricity
0.0001469
Mean motion
15.70891435 rev/d
Perigee alt
355.4 km
Apogee alt
357.3 km
Semi-major
6,734.5 km
B*
1.2983e-3
RAAN
260.9221°
Arg perigee
273.6417°
Mean anomaly
86.4283°
Rev number
7,475

§ Raw data

STARLINK-11543 [DTC]1 62981U 25031A   26145.03653652  .00169961  00000+0  12983-2 0  99912 62981  42.9992 260.9221 0001469 273.6417  86.4283 15.70891435 74752

JSON: /api/v1/satellites/62981 · /tle

For live sub-satellite position, see the globe view (requires WebGL).

§ Visibility from observer

Set your observer location to see the next 7 days of passes ≥ 10°. The values pass through the URL so the page stays shareable.

No JS? Fill the form by hand. The geolocation button needs JavaScript.